sat.trackr.live / text

‹ back to catalog

LEGION 1

NORAD 59625 · 2024-081A

PAYLOAD ACTIVE UNKNOWN

§ Identity

Operator
Country
US
Launch date
2024-05-02
Launch site
AFWTR
Launch vehicle
Mass (kg)
RCS (m²)

Purposes: earth_obs

External: N2YO · Heavens-Above · Gunter

§ Orbital elements

Epoch: 2026-09-19T22:48:53.015904Z

Period
94.91 min
Inclination
97.4946°
Eccentricity
0.0010230
Mean motion
15.17219393 rev/d
Perigee alt
507.2 km
Apogee alt
521.3 km
Semi-major
6,892.4 km
B*
1.1966e-4
RAAN
339.7954°
Arg perigee
46.4998°
Mean anomaly
313.7084°
Rev number
13,190

§ Raw data

LEGION 11 59625U 24081A   26262.95061361  .00002314  00000+0  11966-3 0  99962 59625  97.4946 339.7954 0010230  46.4998 313.7084 15.17219393131905

JSON: /api/v1/satellites/59625 · /tle

For live sub-satellite position, see the globe view (requires WebGL).

§ Visibility from observer

Set your observer location to see the next 7 days of passes ≥ 10°. The values pass through the URL so the page stays shareable.

No JS? Fill the form by hand. The geolocation button needs JavaScript.